Monroe, WI

10:34 AM CDT on April 27, 2017 (GMT -0500)
Monroe Municipal

Weather History for KEFT - March, 2013

Change the Weather History Date:

Wednesday, March 13, 2013

  Actual Average Record
Temperature  
Mean Temperature 26 °F -  
Max Temperature 32 °F 0 °F 69 °F (2007)
Min Temperature 19 °F - 10 °F (2005)
Degree Days  
Heating Degree Days 40    
Moisture  
Dew Point 13 °F    
Average Humidity 60    
Maximum Humidity 93    
Minimum Humidity 32    
Precipitation  
Precipitation 0.00 in - - ()
Sea Level Pressure  
Sea Level Pressure 30.21 in    
Wind  
Wind Speed 13 mph (WNW)    
Max Wind Speed 17 mph    
Max Gust Speed 24 mph    
Visibility 10 miles    
Events Snow    
Averages and records for this station are not official NWS values.
T = Trace of Precipitation, MM = Missing Value Source: NWS Daily Summary

Daily Weather History Graph

Daily Weather History Graph

Search for Another Location

Airport or City:

Trip Planner

Search our weather history database for the weather conditions in past years. The results will help you decide how hot, cold, wet, or windy it might be!

Date:

Astronomy

Mar. 13, 2013 Rise Set
Actual Time 7:13 AM CDT 7:02 PM CDT
Civil Twilight 6:45 AM CDT 7:30 PM CDT
Nautical Twilight 6:12 AM CDT 8:03 PM CDT
Astronomical Twilight 5:39 AM CDT 8:36 PM CDT
Moon 7:49 AM CDT (3/13) 9:23 PM CDT (3/13)
Length of Visible Light 12h 45m
Length of Day
11h 49m
Waxing Crescent, 4% of the Moon is Illuminated
Mar 13
Waxing Crescent
Mar 19
First Quarter
Mar 27
Full
Apr 2
Last Quarter
Apr 10
New

Hourly Weather History & Observations

Time (CDT) Temp. Windchill Dew Point Humidity Pressure Visibility Wind Dir Wind Speed Gust Speed Precip Events Conditions
12:55 AM 24.8 °F 11.9 °F 21.2 °F 86% 30.01 in 10.0 mi West 16.1 mph - N/A   Overcast
1:15 AM 24.8 °F 11.5 °F 21.2 °F 86% 30.02 in 10.0 mi WNW 17.3 mph 24.2 mph N/A   Overcast
1:35 AM 24.8 °F 12.9 °F 21.2 °F 86% 30.03 in 10.0 mi WNW 13.8 mph 21.9 mph N/A   Overcast
1:55 AM 24.8 °F 12.4 °F 21.2 °F 86% 30.03 in 10.0 mi WNW 15.0 mph 19.6 mph N/A   Overcast
2:15 AM 24.8 °F 14.0 °F 21.2 °F 86% 30.04 in 10.0 mi NW 11.5 mph 18.4 mph N/A   Overcast
2:35 AM 24.8 °F 14.0 °F 21.2 °F 86% 30.05 in 10.0 mi NW 11.5 mph 17.3 mph N/A   Overcast
2:55 AM 24.8 °F 14.6 °F 23.0 °F 93% 30.05 in 7.0 mi NW 10.4 mph - N/A Snow Light Snow
3:15 AM 24.8 °F 14.0 °F 23.0 °F 93% 30.06 in 5.0 mi NNW 11.5 mph 18.4 mph N/A Snow Light Snow
4:18 AM 21.2 °F 9.5 °F 19.4 °F 93% 30.07 in 5.0 mi NNW 11.5 mph 20.7 mph N/A Snow Light Snow
4:43 AM 21.2 °F 8.3 °F 15.8 °F 80% 30.09 in 10.0 mi NW 13.8 mph 21.9 mph N/A   Overcast
4:55 AM 23.0 °F 11.7 °F 14.0 °F 68% 30.10 in 10.0 mi NW 11.5 mph 23.0 mph N/A   Overcast
5:15 AM 21.2 °F 10.9 °F 14.0 °F 74% 30.10 in 10.0 mi NNW 9.2 mph 17.3 mph N/A   Scattered Clouds
5:35 AM 21.2 °F 10.1 °F 14.0 °F 74% 30.11 in 10.0 mi NW 10.4 mph - N/A   Clear
5:55 AM 21.2 °F 8.9 °F 14.0 °F 74% 30.12 in 10.0 mi NW 12.7 mph 18.4 mph N/A   Clear
6:15 AM 21.2 °F 9.5 °F 14.0 °F 74% 30.12 in 10.0 mi NW 11.5 mph 17.3 mph N/A   Clear
6:35 AM 21.2 °F 10.1 °F 14.0 °F 74% 30.13 in 10.0 mi NW 10.4 mph - N/A   Clear
6:55 AM 21.2 °F 9.5 °F 15.8 °F 80% 30.14 in 10.0 mi NW 11.5 mph 18.4 mph N/A   Clear
7:15 AM 19.4 °F 7.9 °F 17.6 °F 93% 30.15 in 10.0 mi WNW 10.4 mph 18.4 mph N/A   Clear
7:35 AM 19.4 °F 6.6 °F 15.8 °F 86% 30.15 in 10.0 mi WNW 12.7 mph - N/A   Clear
7:55 AM 21.2 °F 8.3 °F 15.8 °F 80% 30.17 in 10.0 mi NW 13.8 mph - N/A   Clear
8:15 AM 21.2 °F 8.9 °F 15.8 °F 80% 30.18 in 10.0 mi WNW 12.7 mph 18.4 mph N/A   Clear
8:35 AM 21.2 °F 8.3 °F 14.0 °F 74% 30.19 in 10.0 mi WNW 13.8 mph 17.3 mph N/A   Clear
8:55 AM 21.2 °F 8.9 °F 14.0 °F 74% 30.19 in 10.0 mi WNW 12.7 mph 20.7 mph N/A   Clear
9:15 AM 23.0 °F 10.6 °F 12.2 °F 63% 30.20 in 10.0 mi NW 13.8 mph 18.4 mph N/A   Clear
9:35 AM 23.0 °F 11.1 °F 12.2 °F 63% 30.21 in 10.0 mi NW 12.7 mph 21.9 mph N/A   Clear
9:55 AM 24.8 °F 11.9 °F 12.2 °F 59% 30.22 in 10.0 mi NW 16.1 mph 20.7 mph N/A   Clear
10:15 AM 24.8 °F 11.5 °F 12.2 °F 59% 30.23 in 10.0 mi NW 17.3 mph 20.7 mph N/A   Clear
10:35 AM 26.6 °F 14.3 °F 10.4 °F 51% 30.24 in 10.0 mi NW 16.1 mph 20.7 mph N/A   Clear
10:55 AM 26.6 °F 14.3 °F 10.4 °F 51% 30.24 in 10.0 mi NW 16.1 mph 19.6 mph N/A   Clear
11:15 AM 26.6 °F 15.7 °F 10.4 °F 51% 30.25 in 10.0 mi NNW 12.7 mph 19.6 mph N/A   Clear
11:35 AM 28.4 °F 18.0 °F 10.4 °F 47% 30.25 in 10.0 mi NNW 12.7 mph 19.6 mph N/A   Clear
11:55 AM 28.4 °F 17.5 °F 8.6 °F 43% 30.25 in 10.0 mi WNW 13.8 mph 18.4 mph N/A   Clear
12:15 PM 30.2 °F 21.9 °F 8.6 °F 40% 30.26 in 10.0 mi NW 9.2 mph 18.4 mph N/A   Clear
12:35 PM 30.2 °F 20.8 °F 8.6 °F 40% 30.26 in 10.0 mi NNW 11.5 mph 16.1 mph N/A   Clear
12:55 PM 30.2 °F 20.8 °F 8.6 °F 40% 30.26 in 10.0 mi NW 11.5 mph - N/A   Clear
1:15 PM 32.0 °F 21.6 °F 8.6 °F 38% 30.27 in 10.0 mi WNW 15.0 mph - N/A   Clear
1:35 PM 32.0 °F 21.6 °F 5.0 °F 32% 30.27 in 10.0 mi WNW 15.0 mph - N/A   Clear
1:55 PM 32.0 °F 24.8 °F 10.4 °F 41% 30.27 in 10.0 mi NW 8.1 mph - N/A   Clear
2:15 PM 32.0 °F 23.0 °F 8.6 °F 38% 30.26 in 10.0 mi West 11.5 mph - N/A   Clear
2:35 PM 32.0 °F 21.6 °F 10.4 °F 41% 30.26 in 10.0 mi West 15.0 mph - N/A   Clear
2:55 PM 32.0 °F 22.5 °F 8.6 °F 38% 30.26 in 10.0 mi WNW 12.7 mph - N/A   Clear
3:15 PM 32.0 °F 22.5 °F 8.6 °F 38% 30.27 in 10.0 mi West 12.7 mph 18.4 mph N/A   Clear
3:35 PM 32.0 °F 21.6 °F 8.6 °F 38% 30.27 in 10.0 mi West 15.0 mph - N/A   Clear
3:55 PM 32.0 °F 22.5 °F 6.8 °F 35% 30.27 in 10.0 mi WNW 12.7 mph 17.3 mph N/A   Clear
4:15 PM 32.0 °F 23.6 °F 6.8 °F 35% 30.27 in 10.0 mi West 10.4 mph 16.1 mph N/A   Clear
4:35 PM 32.0 °F 22.5 °F 6.8 °F 35% 30.27 in 10.0 mi West 12.7 mph - N/A   Clear
4:55 PM 32.0 °F 23.0 °F 8.6 °F 38% 30.27 in 10.0 mi West 11.5 mph - N/A   Clear
5:15 PM 32.0 °F 24.2 °F 10.4 °F 41% 30.27 in 10.0 mi West 9.2 mph - N/A   Clear
5:35 PM 32.0 °F 23.6 °F 8.6 °F 38% 30.27 in 10.0 mi West 10.4 mph - N/A   Clear
5:55 PM 32.0 °F 23.0 °F 8.6 °F 38% 30.28 in 10.0 mi West 11.5 mph - N/A   Clear
6:15 PM 30.2 °F 20.8 °F 10.4 °F 44% 30.28 in 10.0 mi West 11.5 mph - N/A   Clear
6:35 PM 30.2 °F 19.8 °F 12.2 °F 47% 30.28 in 10.0 mi West 13.8 mph - N/A   Clear
6:55 PM 30.2 °F 19.8 °F 10.4 °F 44% 30.28 in 10.0 mi West 13.8 mph - N/A   Clear
7:15 PM 28.4 °F 19.1 °F 12.2 °F 51% 30.28 in 10.0 mi West 10.4 mph - N/A   Clear
7:35 PM 28.4 °F 19.1 °F 12.2 °F 51% 30.28 in 10.0 mi West 10.4 mph - N/A   Clear
7:55 PM 28.4 °F 19.7 °F 14.0 °F 55% 30.28 in 10.0 mi West 9.2 mph - N/A   Clear
8:15 PM 28.4 °F 18.5 °F 14.0 °F 55% 30.29 in 10.0 mi West 11.5 mph - N/A   Clear
8:35 PM 26.6 °F 16.8 °F 14.0 °F 59% 30.28 in 10.0 mi West 10.4 mph - N/A   Clear
8:55 PM 26.6 °F 16.8 °F 14.0 °F 59% 30.28 in 10.0 mi West 10.4 mph - N/A   Clear
9:15 PM 26.6 °F 16.8 °F 14.0 °F 59% 30.29 in 10.0 mi West 10.4 mph - N/A   Clear
9:35 PM 26.6 °F 16.2 °F 14.0 °F 59% 30.28 in 10.0 mi West 11.5 mph - N/A   Clear
9:55 PM 26.6 °F 16.8 °F 14.0 °F 59% 30.29 in 10.0 mi West 10.4 mph - N/A   Clear
10:15 PM 26.6 °F 16.8 °F 14.0 °F 59% 30.28 in 10.0 mi West 10.4 mph - N/A   Clear
10:35 PM 26.6 °F 16.2 °F 14.0 °F 59% 30.28 in 10.0 mi West 11.5 mph - N/A   Clear
10:55 PM 24.8 °F 15.3 °F 14.0 °F 64% 30.28 in 10.0 mi West 9.2 mph - N/A   Clear
11:15 PM 24.8 °F 14.6 °F 14.0 °F 64% 30.29 in 10.0 mi West 10.4 mph - N/A   Clear
11:35 PM 24.8 °F 14.6 °F 14.0 °F 64% 30.29 in 10.0 mi West 10.4 mph - N/A   Clear
11:55 PM 23.0 °F 13.9 °F 14.0 °F 68% 30.29 in 10.0 mi West 8.1 mph - N/A   Clear